sat.trackr.live / text

‹ back to catalog

ONEWEB-0575

NORAD 56064 · 2023-043U

PAYLOAD ACTIVE UNKNOWN

§ Identity

Operator
Country
UK
Launch date
2023-03-26
Launch site
SRILR
Launch vehicle
Mass (kg)
RCS (m²)

Purposes: comms

External: N2YO · Heavens-Above · Gunter

§ Orbital elements

Epoch: 2026-09-20T03:40:00.704352Z

Period
109.37 min
Inclination
87.9156°
Eccentricity
0.0002225
Mean motion
13.16592737 rev/d
Perigee alt
1,196.1 km
Apogee alt
1,199.4 km
Semi-major
7,575.9 km
B*
2.9891e-4
RAAN
209.9128°
Arg perigee
81.5671°
Mean anomaly
278.5712°
Rev number
17,146

§ Raw data

ONEWEB-05751 56064U 23043U   26263.15278593  .00000127  00000+0  29891-3 0  99932 56064  87.9156 209.9128 0002225  81.5671 278.5712 13.16592737171464

JSON: /api/v1/satellites/56064 · /tle

For live sub-satellite position, see the globe view (requires WebGL).

§ Visibility from observer

Set your observer location to see the next 7 days of passes ≥ 10°. The values pass through the URL so the page stays shareable.

No JS? Fill the form by hand. The geolocation button needs JavaScript.